M I D A S
Marine Information and Data Acquisition System
Tripno 1498 of the Zeeleeuw from 2008-06-03 06:19:20 to 2008-06-03 13:06:08
Back to CruiseResearch ActivitiesStationsMapUnderway DataData graphs

EquipmentUnitsComments
TimeDGPSUTC
LatitudeDGPSDM.mWGS84
LongitudeDGPSDM.mWGS84
SpeedMeteo Stationm/sRelative wind speed
DirectionMeteo StationdegRelative wind direction
TemperatureMeteo Stationdeg CelciusAir temperature
PressureMeteo StationPaAtmospheric pressure
HumidityMeteo Station%Relative humidity
Missing or incorrect values are displayed as -999
Metereological data collected by the RV Zeeleeuw from 2008-06-03 06:22:14 to 2008-06-03 13:07:22
                                                                                    Next 1000 lines
Time Latitude Longitude Speed Direction Temperature Pressure Humidity
2008-06-03 06:22:24 51°13.623 2°56.045 -999 -999 -999 -999 -999
2008-06-03 06:22:29 51°13.624 2°56.042 -999 -999 -999 -999 -999
2008-06-03 06:22:34 51°13.625 2°56.039 -999 -999 -999 -999 -999
2008-06-03 06:22:39 51°13.626 2°56.034 -999 -999 -999 -999 -999
2008-06-03 06:22:44 51°13.628 2°56.029 -999 -999 -999 -999 -999
2008-06-03 06:22:49 51°13.63 2°56.023 -999 -999 -999 -999 -999
2008-06-03 06:22:54 51°13.632 2°56.016 -999 -999 -999 -999 -999
2008-06-03 06:22:59 51°13.634 2°56.009 -999 -999 -999 -999 -999
2008-06-03 06:23:04 51°13.636 2°56.002 -999 -999 -999 -999 -999
2008-06-03 06:23:09 51°13.638 2°55.994 -999 -999 -999 -999 -999
2008-06-03 06:23:14 51°13.641 2°55.986 -999 -999 -999 -999 -999
2008-06-03 06:23:19 51°13.643 2°55.978 -999 -999 -999 -999 -999
2008-06-03 06:23:24 51°13.645 2°55.97 -999 -999 -999 -999 -999
2008-06-03 06:23:29 51°13.646 2°55.962 -999 -999 -999 -999 -999
2008-06-03 06:23:34 51°13.648 2°55.955 -999 -999 -999 -999 -999
2008-06-03 06:23:39 51°13.649 2°55.949 -999 -999 -999 -999 -999
2008-06-03 06:23:44 51°13.65 2°55.946 -999 -999 -999 -999 -999
2008-06-03 06:23:50 51°13.651 2°55.943 -999 -999 -999 -999 -999
2008-06-03 06:23:55 51°13.651 2°55.942 -999 -999 -999 -999 -999
2008-06-03 06:24:00 51°13.652 2°55.94 -999 -999 -999 -999 -999
2008-06-03 06:24:05 51°13.652 2°55.938 -999 -999 -999 -999 -999
2008-06-03 06:24:10 51°13.653 2°55.934 -999 -999 -999 -999 -999
2008-06-03 06:24:15 51°13.654 2°55.93 -999 -999 -999 -999 -999
2008-06-03 06:24:20 51°13.656 2°55.925 -999 -999 -999 -999 -999
2008-06-03 06:24:25 51°13.657 2°55.92 -999 -999 -999 -999 -999
2008-06-03 06:24:30 51°13.659 2°55.914 -999 -999 -999 -999 -999
2008-06-03 06:24:35 51°13.661 2°55.907 -999 -999 -999 -999 -999
2008-06-03 06:24:40 51°13.663 2°55.9 -999 -999 -999 -999 -999
2008-06-03 06:24:45 51°13.665 2°55.892 -999 -999 -999 -999 -999
2008-06-03 06:24:50 51°13.667 2°55.884 -999 -999 -999 -999 -999
2008-06-03 06:24:55 51°13.669 2°55.876 -999 -999 -999 -999 -999
2008-06-03 06:25:00 51°13.671 2°55.868 -999 -999 -999 -999 -999
2008-06-03 06:25:05 51°13.673 2°55.86 -999 -999 -999 -999 -999
2008-06-03 06:25:10 51°13.675 2°55.852 -999 -999 -999 -999 -999
2008-06-03 06:25:15 51°13.677 2°55.844 -999 -999 -999 -999 -999
2008-06-03 06:25:20 51°13.68 2°55.836 -999 -999 -999 -999 -999
2008-06-03 06:25:25 51°13.682 2°55.827 -999 -999 -999 -999 -999
2008-06-03 06:25:30 51°13.683 2°55.82 -999 -999 -999 -999 -999
2008-06-03 06:25:35 51°13.685 2°55.812 -999 -999 -999 -999 -999
2008-06-03 06:25:40 51°13.687 2°55.806 -999 -999 -999 -999 -999
2008-06-03 06:25:45 51°13.689 2°55.799 -999 -999 -999 -999 -999
2008-06-03 06:25:50 51°13.69 2°55.793 -999 -999 -999 -999 -999
2008-06-03 06:25:55 51°13.692 2°55.788 -999 -999 -999 -999 -999
2008-06-03 06:26:00 51°13.693 2°55.782 -999 -999 -999 -999 -999
2008-06-03 06:26:04 51°13.694 2°55.779 -999 -999 -999 -999 -999
2008-06-03 06:26:10 51°13.695 2°55.773 -999 -999 -999 -999 -999
2008-06-03 06:26:15 51°13.696 2°55.769 -999 -999 -999 -999 -999
2008-06-03 06:26:20 51°13.696 2°55.765 -999 -999 -999 -999 -999
2008-06-03 06:26:25 51°13.697 2°55.761 -999 -999 -999 -999 -999
2008-06-03 06:26:30 51°13.698 2°55.758 -999 -999 -999 -999 -999
2008-06-03 06:26:35 51°13.698 2°55.755 -999 -999 -999 -999 -999
2008-06-03 06:26:40 51°13.699 2°55.754 -999 -999 -999 -999 -999
2008-06-03 06:26:45 51°13.7 2°55.753 -999 -999 -999 -999 -999
2008-06-03 06:26:50 51°13.7 2°55.752 -999 -999 -999 -999 -999
2008-06-03 06:26:55 51°13.701 2°55.752 -999 -999 -999 -999 -999
2008-06-03 06:27:00 51°13.702 2°55.753 -999 -999 -999 -999 -999
2008-06-03 06:27:05 51°13.703 2°55.754 -999 -999 -999 -999 -999
2008-06-03 06:27:10 51°13.704 2°55.754 -999 -999 -999 -999 -999
2008-06-03 06:27:15 51°13.705 2°55.754 -999 -999 -999 -999 -999
2008-06-03 06:27:20 51°13.705 2°55.753 -999 -999 -999 -999 -999
2008-06-03 06:27:25 51°13.705 2°55.751 -999 -999 -999 -999 -999
2008-06-03 06:27:30 51°13.704 2°55.748 -999 -999 -999 -999 -999
2008-06-03 06:27:35 51°13.704 2°55.745 -999 -999 -999 -999 -999
2008-06-03 06:27:40 51°13.703 2°55.742 -999 -999 -999 -999 -999
2008-06-03 06:27:45 51°13.702 2°55.74 -999 -999 -999 -999 -999
2008-06-03 06:27:50 51°13.702 2°55.738 -999 -999 -999 -999 -999
2008-06-03 06:27:55 51°13.702 2°55.737 -999 -999 -999 -999 -999
2008-06-03 06:28:00 51°13.704 2°55.737 -999 -999 -999 -999 -999
2008-06-03 06:28:05 51°13.707 2°55.737 -999 -999 -999 -999 -999
2008-06-03 06:28:10 51°13.71 2°55.737 -999 -999 -999 -999 -999
2008-06-03 06:28:15 51°13.715 2°55.736 -999 -999 -999 -999 -999
2008-06-03 06:28:20 51°13.72 2°55.733 -999 -999 -999 -999 -999
2008-06-03 06:28:24 51°13.725 2°55.729 -999 -999 -999 -999 -999
2008-06-03 06:28:30 51°13.732 2°55.722 -999 -999 -999 -999 -999
2008-06-03 06:28:35 51°13.739 2°55.715 -999 -999 -999 -999 -999
2008-06-03 06:28:40 51°13.746 2°55.707 -999 -999 -999 -999 -999
2008-06-03 06:28:44 51°13.753 2°55.701 -999 -999 -999 -999 -999
2008-06-03 06:28:50 51°13.762 2°55.692 -999 -999 -999 -999 -999
2008-06-03 06:28:55 51°13.771 2°55.683 -999 -999 -999 -999 -999
2008-06-03 06:29:00 51°13.78 2°55.675 -999 -999 -999 -999 -999
2008-06-03 06:29:05 51°13.789 2°55.667 -999 -999 -999 -999 -999
2008-06-03 06:29:10 51°13.798 2°55.659 -999 -999 -999 -999 -999
2008-06-03 06:29:15 51°13.808 2°55.651 -999 -999 -999 -999 -999
2008-06-03 06:29:20 51°13.818 2°55.643 -999 -999 -999 -999 -999
2008-06-03 06:29:25 51°13.827 2°55.635 -999 -999 -999 -999 -999
2008-06-03 06:29:30 51°13.838 2°55.628 -999 -999 -999 -999 -999
2008-06-03 06:29:35 51°13.848 2°55.62 -999 -999 -999 -999 -999
2008-06-03 06:29:40 51°13.858 2°55.612 -999 -999 -999 -999 -999
2008-06-03 06:29:45 51°13.869 2°55.604 -999 -999 -999 -999 -999
2008-06-03 06:29:50 51°13.879 2°55.596 -999 -999 -999 -999 -999
2008-06-03 06:29:55 51°13.89 2°55.588 -999 -999 -999 -999 -999
2008-06-03 06:29:59 51°13.899 2°55.582 -999 -999 -999 -999 -999
2008-06-03 06:30:05 51°13.911 2°55.572 -999 -999 -999 -999 -999
2008-06-03 06:30:10 51°13.923 2°55.565 -999 -999 -999 -999 -999
2008-06-03 06:30:15 51°13.934 2°55.557 -999 -999 -999 -999 -999
2008-06-03 06:30:20 51°13.945 2°55.549 -999 -999 -999 -999 -999
2008-06-03 06:30:24 51°13.953 2°55.542 -999 -999 -999 -999 -999
2008-06-03 06:30:30 51°13.967 2°55.532 -999 -999 -999 -999 -999
2008-06-03 06:30:35 51°13.978 2°55.525 -999 -999 -999 -999 -999
2008-06-03 06:30:40 51°13.989 2°55.516 -999 -999 -999 -999 -999
2008-06-03 06:30:44 51°13.997 2°55.509 -999 -999 -999 -999 -999
2008-06-03 06:30:50 51°14.01 2°55.5 -999 -999 -999 -999 -999
2008-06-03 06:30:55 51°14.021 2°55.492 -999 -999 -999 -999 -999
2008-06-03 06:31:00 51°14.031 2°55.484 -999 -999 -999 -999 -999
2008-06-03 06:31:04 51°14.039 2°55.478 -999 -999 -999 -999 -999
2008-06-03 06:31:10 51°14.051 2°55.469 -999 -999 -999 -999 -999
2008-06-03 06:31:15 51°14.06 2°55.462 -999 -999 -999 -999 -999
2008-06-03 06:31:20 51°14.07 2°55.455 -999 -999 -999 -999 -999
2008-06-03 06:31:25 51°14.079 2°55.448 -999 -999 -999 -999 -999
2008-06-03 06:31:30 51°14.088 2°55.441 -999 -999 -999 -999 -999
2008-06-03 06:31:35 51°14.096 2°55.434 -999 -999 -999 -999 -999
2008-06-03 06:31:40 51°14.105 2°55.427 -999 -999 -999 -999 -999
2008-06-03 06:31:45 51°14.115 2°55.419 -999 -999 -999 -999 -999
2008-06-03 06:31:50 51°14.124 2°55.411 -999 -999 -999 -999 -999
2008-06-03 06:31:55 51°14.133 2°55.403 -999 -999 -999 -999 -999
2008-06-03 06:32:00 51°14.143 2°55.394 -999 -999 -999 -999 -999
2008-06-03 06:32:05 51°14.153 2°55.385 -999 -999 -999 -999 -999
2008-06-03 06:32:10 51°14.163 2°55.375 -999 -999 -999 -999 -999
2008-06-03 06:32:15 51°14.172 2°55.365 -999 -999 -999 -999 -999
2008-06-03 06:32:19 51°14.181 2°55.356 -999 -999 -999 -999 -999
2008-06-03 06:32:25 51°14.192 2°55.343 -999 -999 -999 -999 -999
2008-06-03 06:32:30 51°14.202 2°55.332 -999 -999 -999 -999 -999
2008-06-03 06:32:35 51°14.212 2°55.32 -999 -999 -999 -999 -999
2008-06-03 06:32:40 51°14.221 2°55.308 -999 -999 -999 -999 -999
2008-06-03 06:32:44 51°14.229 2°55.297 -999 -999 -999 -999 -999
2008-06-03 06:32:50 51°14.24 2°55.282 -999 -999 -999 -999 -999
2008-06-03 06:32:55 51°14.25 2°55.269 -999 -999 -999 -999 -999
2008-06-03 06:33:00 51°14.259 2°55.255 -999 -999 -999 -999 -999
2008-06-03 06:33:04 51°14.266 2°55.244 -999 -999 -999 -999 -999
2008-06-03 06:33:10 51°14.277 2°55.227 -999 -999 -999 -999 -999
2008-06-03 06:33:15 51°14.285 2°55.213 -999 -999 -999 -999 -999
2008-06-03 06:33:20 51°14.294 2°55.198 -999 -999 -999 -999 -999
2008-06-03 06:33:24 51°14.3 2°55.186 -999 -999 -999 -999 -999
2008-06-03 06:33:30 51°14.311 2°55.167 -999 -999 -999 -999 -999
2008-06-03 06:33:35 51°14.319 2°55.151 -999 -999 -999 -999 -999
2008-06-03 06:33:40 51°14.328 2°55.135 -999 -999 -999 -999 -999
2008-06-03 06:33:45 51°14.338 2°55.119 -999 -999 -999 -999 -999
2008-06-03 06:33:50 51°14.347 2°55.103 -999 -999 -999 -999 -999
2008-06-03 06:33:55 51°14.356 2°55.085 -999 -999 -999 -999 -999
2008-06-03 06:34:00 51°14.365 2°55.067 -999 -999 -999 -999 -999
2008-06-03 06:34:05 51°14.373 2°55.048 -999 -999 -999 -999 -999
2008-06-03 06:34:10 51°14.383 2°55.029 -999 -999 -999 -999 -999
2008-06-03 06:34:15 51°14.392 2°55.009 -999 -999 -999 -999 -999
2008-06-03 06:34:19 51°14.399 2°54.993 -999 -999 -999 -999 -999
2008-06-03 06:34:25 51°14.41 2°54.968 -999 -999 -999 -999 -999
2008-06-03 06:34:30 51°14.42 2°54.946 -999 -999 -999 -999 -999
2008-06-03 06:34:35 51°14.43 2°54.925 -999 -999 -999 -999 -999
2008-06-03 06:34:40 51°14.44 2°54.903 -999 -999 -999 -999 -999
2008-06-03 06:34:45 51°14.45 2°54.882 -999 -999 -999 -999 -999
2008-06-03 06:34:50 51°14.462 2°54.862 -999 -999 -999 -999 -999
2008-06-03 06:34:55 51°14.475 2°54.844 -999 -999 -999 -999 -999
2008-06-03 06:35:00 51°14.488 2°54.827 -999 -999 -999 -999 -999
2008-06-03 06:35:04 51°14.499 2°54.814 -999 -999 -999 -999 -999
2008-06-03 06:35:10 51°14.514 2°54.793 -999 -999 -999 -999 -999
2008-06-03 06:35:15 51°14.528 2°54.777 -999 -999 -999 -999 -999
2008-06-03 06:35:20 51°14.542 2°54.76 -999 -999 -999 -999 -999
2008-06-03 06:35:24 51°14.553 2°54.748 -999 -999 -999 -999 -999
2008-06-03 06:35:30 51°14.57 2°54.728 -999 -999 -999 -999 -999
2008-06-03 06:35:35 51°14.583 2°54.712 -999 -999 -999 -999 -999
2008-06-03 06:35:40 51°14.597 2°54.695 -999 -999 -999 -999 -999
2008-06-03 06:35:44 51°14.608 2°54.683 -999 -999 -999 -999 -999
2008-06-03 06:35:50 51°14.625 2°54.664 -999 -999 -999 -999 -999
2008-06-03 06:35:55 51°14.639 2°54.648 -999 -999 -999 -999 -999
2008-06-03 06:36:00 51°14.653 2°54.633 -999 -999 -999 -999 -999
2008-06-03 06:36:05 51°14.667 2°54.618 -999 -999 -999 -999 -999
2008-06-03 06:36:10 51°14.682 2°54.602 -999 -999 -999 -999 -999
2008-06-03 06:36:15 51°14.696 2°54.587 -999 -999 -999 -999 -999
2008-06-03 06:36:20 51°14.71 2°54.572 -999 -999 -999 -999 -999
2008-06-03 06:36:25 51°14.724 2°54.557 -999 -999 -999 -999 -999
2008-06-03 06:36:30 51°14.738 2°54.542 -999 -999 -999 -999 -999
2008-06-03 06:36:35 51°14.752 2°54.527 -999 -999 -999 -999 -999
2008-06-03 06:36:40 51°14.766 2°54.512 -999 -999 -999 -999 -999
2008-06-03 06:36:45 51°14.78 2°54.496 -999 -999 -999 -999 -999
2008-06-03 06:36:50 51°14.794 2°54.481 -999 -999 -999 -999 -999
2008-06-03 06:36:55 51°14.808 2°54.465 -999 -999 -999 -999 -999
2008-06-03 06:37:00 51°14.822 2°54.449 -999 -999 -999 -999 -999
2008-06-03 06:37:05 51°14.835 2°54.433 -999 -999 -999 -999 -999
2008-06-03 06:37:10 51°14.849 2°54.418 -999 -999 -999 -999 -999
2008-06-03 06:37:15 51°14.862 2°54.402 -999 -999 -999 -999 -999
2008-06-03 06:37:20 51°14.876 2°54.387 -999 -999 -999 -999 -999
2008-06-03 06:37:24 51°14.887 2°54.375 -999 -999 -999 -999 -999
2008-06-03 06:37:30 51°14.904 2°54.357 -999 -999 -999 -999 -999
2008-06-03 06:37:35 51°14.917 2°54.341 -999 -999 -999 -999 -999
2008-06-03 06:37:40 51°14.931 2°54.326 -999 -999 -999 -999 -999
2008-06-03 06:37:45 51°14.944 2°54.31 -999 -999 -999 -999 -999
2008-06-03 06:37:50 51°14.957 2°54.294 -999 -999 -999 -999 -999
2008-06-03 06:37:55 51°14.97 2°54.279 -999 -999 -999 -999 -999
2008-06-03 06:38:00 51°14.983 2°54.263 -999 -999 -999 -999 -999
2008-06-03 06:38:05 51°14.996 2°54.247 -999 -999 -999 -999 -999
2008-06-03 06:38:10 51°15.009 2°54.232 -999 -999 -999 -999 -999
2008-06-03 06:38:15 51°15.022 2°54.216 -999 -999 -999 -999 -999
2008-06-03 06:38:20 51°15.035 2°54.199 -999 -999 -999 -999 -999
2008-06-03 06:38:25 51°15.048 2°54.183 -999 -999 -999 -999 -999
2008-06-03 06:38:30 51°15.061 2°54.166 -999 -999 -999 -999 -999
2008-06-03 06:38:35 51°15.073 2°54.149 -999 -999 -999 -999 -999
2008-06-03 06:38:40 51°15.086 2°54.131 -999 -999 -999 -999 -999
2008-06-03 06:38:45 51°15.098 2°54.114 -999 -999 -999 -999 -999
2008-06-03 06:38:50 51°15.111 2°54.097 -999 -999 -999 -999 -999
2008-06-03 06:38:55 51°15.124 2°54.08 -999 -999 -999 -999 -999
2008-06-03 06:39:00 51°15.137 2°54.064 -999 -999 -999 -999 -999
2008-06-03 06:39:05 51°15.15 2°54.048 -999 -999 -999 -999 -999
2008-06-03 06:39:10 51°15.163 2°54.032 -999 -999 -999 -999 -999
2008-06-03 06:39:15 51°15.177 2°54.016 -999 -999 -999 -999 -999
2008-06-03 06:39:20 51°15.19 2°54.001 -999 -999 -999 -999 -999
2008-06-03 06:39:25 51°15.203 2°53.986 -999 -999 -999 -999 -999
2008-06-03 06:39:30 51°15.217 2°53.972 -999 -999 -999 -999 -999
2008-06-03 06:39:35 51°15.231 2°53.957 -999 -999 -999 -999 -999
2008-06-03 06:39:40 51°15.245 2°53.943 -999 -999 -999 -999 -999
2008-06-03 06:39:44 51°15.256 2°53.932 -999 -999 -999 -999 -999
2008-06-03 06:39:50 51°15.272 2°53.916 -999 -999 -999 -999 -999
2008-06-03 06:39:55 51°15.286 2°53.902 -999 -999 -999 -999 -999
2008-06-03 06:40:00 51°15.3 2°53.888 -999 -999 -999 -999 -999
2008-06-03 06:40:04 51°15.311 2°53.877 -999 -999 -999 -999 -999
2008-06-03 06:40:10 51°15.328 2°53.86 -999 -999 -999 -999 -999
2008-06-03 06:40:15 51°15.342 2°53.847 -999 -999 -999 -999 -999
2008-06-03 06:40:20 51°15.356 2°53.833 -999 -999 -999 -999 -999
2008-06-03 06:40:24 51°15.367 2°53.822 -999 -999 -999 -999 -999
2008-06-03 06:40:30 51°15.384 2°53.805 -999 -999 -999 -999 -999
2008-06-03 06:40:35 51°15.398 2°53.791 -999 -999 -999 -999 -999
2008-06-03 06:40:40 51°15.412 2°53.778 -999 -999 -999 -999 -999
2008-06-03 06:40:45 51°15.426 2°53.764 -999 -999 -999 -999 -999
2008-06-03 06:40:50 51°15.44 2°53.75 -999 -999 -999 -999 -999
2008-06-03 06:40:55 51°15.454 2°53.736 -999 -999 -999 -999 -999
2008-06-03 06:41:00 51°15.468 2°53.723 -999 -999 -999 -999 -999
2008-06-03 06:41:05 51°15.482 2°53.709 -999 -999 -999 -999 -999
2008-06-03 06:41:10 51°15.496 2°53.695 -999 -999 -999 -999 -999
2008-06-03 06:41:15 51°15.51 2°53.681 -999 -999 -999 -999 -999
2008-06-03 06:41:19 51°15.521 2°53.67 -999 -999 -999 -999 -999
2008-06-03 06:41:25 51°15.538 2°53.654 -999 -999 -999 -999 -999
2008-06-03 06:41:30 51°15.552 2°53.64 -999 -999 -999 -999 -999
2008-06-03 06:41:35 51°15.566 2°53.626 -999 -999 -999 -999 -999
2008-06-03 06:41:40 51°15.58 2°53.613 -999 -999 -999 -999 -999
2008-06-03 06:41:45 51°15.594 2°53.599 -999 -999 -999 -999 -999
2008-06-03 06:41:50 51°15.608 2°53.586 -999 -999 -999 -999 -999
2008-06-03 06:41:55 51°15.622 2°53.572 -999 -999 -999 -999 -999
2008-06-03 06:42:00 51°15.636 2°53.559 -999 -999 -999 -999 -999
2008-06-03 06:42:04 51°15.648 2°53.548 -999 -999 -999 -999 -999
2008-06-03 06:42:10 51°15.665 2°53.532 -999 -999 -999 -999 -999
2008-06-03 06:42:15 51°15.679 2°53.518 -999 -999 -999 -999 -999
2008-06-03 06:42:20 51°15.693 2°53.505 -999 -999 -999 -999 -999
2008-06-03 06:42:25 51°15.707 2°53.492 -999 -999 -999 -999 -999
2008-06-03 06:42:30 51°15.721 2°53.479 -999 -999 -999 -999 -999
2008-06-03 06:42:35 51°15.736 2°53.466 -999 -999 -999 -999 -999
2008-06-03 06:42:40 51°15.75 2°53.452 -999 -999 -999 -999 -999
2008-06-03 06:42:44 51°15.761 2°53.442 -999 -999 -999 -999 -999
2008-06-03 06:42:50 51°15.778 2°53.427 -999 -999 -999 -999 -999
2008-06-03 06:42:55 51°15.793 2°53.414 -999 -999 -999 -999 -999
2008-06-03 06:43:00 51°15.807 2°53.402 -999 -999 -999 -999 -999
2008-06-03 06:43:05 51°15.822 2°53.39 -999 -999 -999 -999 -999
2008-06-03 06:43:10 51°15.837 2°53.378 -999 -999 -999 -999 -999
2008-06-03 06:43:15 51°15.851 2°53.366 -999 -999 -999 -999 -999
2008-06-03 06:43:20 51°15.866 2°53.354 -999 -999 -999 -999 -999
2008-06-03 06:43:25 51°15.88 2°53.341 -999 -999 -999 -999 -999
2008-06-03 06:43:30 51°15.895 2°53.33 -999 -999 -999 -999 -999
2008-06-03 06:43:35 51°15.91 2°53.318 -999 -999 -999 -999 -999
2008-06-03 06:43:40 51°15.924 2°53.305 -999 -999 -999 -999 -999
2008-06-03 06:43:45 51°15.939 2°53.293 -999 -999 -999 -999 -999
2008-06-03 06:43:50 51°15.954 2°53.282 -999 -999 -999 -999 -999
2008-06-03 06:43:55 51°15.968 2°53.27 -999 -999 -999 -999 -999
2008-06-03 06:43:59 51°15.98 2°53.26 -999 -999 -999 -999 -999
2008-06-03 06:44:05 51°15.998 2°53.246 -999 -999 -999 -999 -999
2008-06-03 06:44:10 51°16.012 2°53.234 -999 -999 -999 -999 -999
2008-06-03 06:44:15 51°16.027 2°53.223 -999 -999 -999 -999 -999
2008-06-03 06:44:20 51°16.042 2°53.212 -999 -999 -999 -999 -999
2008-06-03 06:44:24 51°16.054 2°53.203 -999 -999 -999 -999 -999
2008-06-03 06:44:30 51°16.072 2°53.19 -999 -999 -999 -999 -999
2008-06-03 06:44:35 51°16.086 2°53.179 -999 -999 -999 -999 -999
2008-06-03 06:44:40 51°16.101 2°53.167 -999 -999 -999 -999 -999
2008-06-03 06:44:44 51°16.113 2°53.159 -999 -999 -999 -999 -999
2008-06-03 06:44:50 51°16.131 2°53.145 -999 -999 -999 -999 -999
2008-06-03 06:44:55 51°16.146 2°53.133 -999 -999 -999 -999 -999
2008-06-03 06:45:00 51°16.16 2°53.122 -999 -999 -999 -999 -999
2008-06-03 06:45:05 51°16.175 2°53.111 -999 -999 -999 -999 -999
2008-06-03 06:45:10 51°16.19 2°53.1 -999 -999 -999 -999 -999
2008-06-03 06:45:15 51°16.205 2°53.089 -999 -999 -999 -999 -999
2008-06-03 06:45:20 51°16.219 2°53.078 -999 -999 -999 -999 -999
2008-06-03 06:45:25 51°16.234 2°53.067 -999 -999 -999 -999 -999
2008-06-03 06:45:30 51°16.249 2°53.057 -999 -999 -999 -999 -999
2008-06-03 06:45:35 51°16.264 2°53.047 -999 -999 -999 -999 -999
2008-06-03 06:45:39 51°16.276 2°53.038 -999 -999 -999 -999 -999
2008-06-03 06:45:45 51°16.294 2°53.026 -999 -999 -999 -999 -999
2008-06-03 06:45:50 51°16.309 2°53.015 -999 -999 -999 -999 -999
2008-06-03 06:45:55 51°16.324 2°53.004 -999 -999 -999 -999 -999
2008-06-03 06:46:00 51°16.339 2°52.993 -999 -999 -999 -999 -999
2008-06-03 06:46:05 51°16.353 2°52.981 -999 -999 -999 -999 -999
2008-06-03 06:46:10 51°16.368 2°52.97 -999 -999 -999 -999 -999
2008-06-03 06:46:15 51°16.383 2°52.958 -999 -999 -999 -999 -999
2008-06-03 06:46:20 51°16.397 2°52.946 -999 -999 -999 -999 -999
2008-06-03 06:46:24 51°16.409 2°52.937 -999 -999 -999 -999 -999
2008-06-03 06:46:30 51°16.427 2°52.924 -999 -999 -999 -999 -999
2008-06-03 06:46:35 51°16.442 2°52.914 -999 -999 -999 -999 -999
2008-06-03 06:46:40 51°16.457 2°52.904 -999 -999 -999 -999 -999
2008-06-03 06:46:44 51°16.469 2°52.897 -999 -999 -999 -999 -999
2008-06-03 06:46:50 51°16.487 2°52.885 -999 -999 -999 -999 -999
2008-06-03 06:46:55 51°16.503 2°52.876 -999 -999 -999 -999 -999
2008-06-03 06:47:00 51°16.518 2°52.867 -999 -999 -999 -999 -999
2008-06-03 06:47:04 51°16.53 2°52.86 -999 -999 -999 -999 -999
2008-06-03 06:47:10 51°16.548 2°52.85 -999 -999 -999 -999 -999
2008-06-03 06:47:15 51°16.564 2°52.841 -999 -999 -999 -999 -999
2008-06-03 06:47:20 51°16.579 2°52.833 -999 -999 -999 -999 -999
2008-06-03 06:47:25 51°16.594 2°52.824 -999 -999 -999 -999 -999
2008-06-03 06:47:30 51°16.609 2°52.815 -999 -999 -999 -999 -999
2008-06-03 06:47:35 51°16.625 2°52.806 -999 -999 -999 -999 -999
2008-06-03 06:47:40 51°16.64 2°52.797 -999 -999 -999 -999 -999
2008-06-03 06:47:45 51°16.655 2°52.789 -999 -999 -999 -999 -999
2008-06-03 06:47:50 51°16.67 2°52.78 -999 -999 -999 -999 -999
2008-06-03 06:47:55 51°16.685 2°52.771 -999 -999 -999 -999 -999
2008-06-03 06:47:59 51°16.697 2°52.764 -999 -999 -999 -999 -999
2008-06-03 06:48:05 51°16.715 2°52.753 -999 -999 -999 -999 -999
2008-06-03 06:48:10 51°16.73 2°52.745 -999 -999 -999 -999 -999
2008-06-03 06:48:15 51°16.745 2°52.736 -999 -999 -999 -999 -999
2008-06-03 06:48:20 51°16.759 2°52.726 -999 -999 -999 -999 -999
2008-06-03 06:48:25 51°16.774 2°52.716 -999 -999 -999 -999 -999
2008-06-03 06:48:30 51°16.788 2°52.706 -999 -999 -999 -999 -999
2008-06-03 06:48:35 51°16.803 2°52.696 -999 -999 -999 -999 -999
2008-06-03 06:48:40 51°16.817 2°52.686 -999 -999 -999 -999 -999
2008-06-03 06:48:44 51°16.829 2°52.677 -999 -999 -999 -999 -999
2008-06-03 06:48:50 51°16.846 2°52.664 -999 -999 -999 -999 -999
2008-06-03 06:48:55 51°16.86 2°52.654 -999 -999 -999 -999 -999
2008-06-03 06:49:00 51°16.874 2°52.643 -999 -999 -999 -999 -999
2008-06-03 06:49:05 51°16.888 2°52.633 -999 -999 -999 -999 -999
2008-06-03 06:49:10 51°16.902 2°52.622 -999 -999 -999 -999 -999
2008-06-03 06:49:15 51°16.917 2°52.612 -999 -999 -999 -999 -999
2008-06-03 06:49:20 51°16.931 2°52.601 -999 -999 -999 -999 -999
2008-06-03 06:49:24 51°16.942 2°52.593 -999 -999 -999 -999 -999
2008-06-03 06:49:30 51°16.96 2°52.581 -999 -999 -999 -999 -999
2008-06-03 06:49:35 51°16.974 2°52.571 -999 -999 -999 -999 -999
2008-06-03 06:49:40 51°16.988 2°52.56 -999 -999 -999 -999 -999
2008-06-03 06:49:45 51°17.003 2°52.55 -999 -999 -999 -999 -999
2008-06-03 06:49:50 51°17.017 2°52.541 -999 -999 -999 -999 -999
2008-06-03 06:49:55 51°17.031 2°52.531 -999 -999 -999 -999 -999
2008-06-03 06:50:00 51°17.046 2°52.52 -999 -999 -999 -999 -999
2008-06-03 06:50:05 51°17.06 2°52.51 -999 -999 -999 -999 -999
2008-06-03 06:50:10 51°17.074 2°52.5 -999 -999 -999 -999 -999
2008-06-03 06:50:15 51°17.088 2°52.49 -999 -999 -999 -999 -999
2008-06-03 06:50:20 51°17.102 2°52.479 -999 -999 -999 -999 -999
2008-06-03 06:50:25 51°17.117 2°52.469 -999 -999 -999 -999 -999
2008-06-03 06:50:30 51°17.131 2°52.459 -999 -999 -999 -999 -999
2008-06-03 06:50:35 51°17.145 2°52.45 -999 -999 -999 -999 -999
2008-06-03 06:50:39 51°17.157 2°52.442 -999 -999 -999 -999 -999
2008-06-03 06:50:44 51°17.172 2°52.435 -999 -999 -999 -999 -999
2008-06-03 06:50:50 51°17.19 2°52.425 -999 -999 -999 -999 -999
2008-06-03 06:50:55 51°17.205 2°52.419 -999 -999 -999 -999 -999
2008-06-03 06:51:00 51°17.219 2°52.413 -999 -999 -999 -999 -999
2008-06-03 06:51:04 51°17.232 2°52.408 -999 -999 -999 -999 -999
2008-06-03 06:51:10 51°17.249 2°52.402 -999 -999 -999 -999 -999
2008-06-03 06:51:15 51°17.265 2°52.397 -999 -999 -999 -999 -999
2008-06-03 06:51:20 51°17.28 2°52.394 -999 -999 -999 -999 -999
2008-06-03 06:51:24 51°17.292 2°52.391 -999 -999 -999 -999 -999
2008-06-03 06:51:30 51°17.31 2°52.389 -999 -999 -999 -999 -999
2008-06-03 06:51:35 51°17.325 2°52.386 -999 -999 -999 -999 -999
2008-06-03 06:51:40 51°17.34 2°52.384 -999 -999 -999 -999 -999
2008-06-03 06:51:45 51°17.356 2°52.382 -999 -999 -999 -999 -999
2008-06-03 06:51:50 51°17.371 2°52.381 -999 -999 -999 -999 -999
2008-06-03 06:51:55 51°17.386 2°52.379 -999 -999 -999 -999 -999
2008-06-03 06:52:00 51°17.401 2°52.378 -999 -999 -999 -999 -999
2008-06-03 06:52:04 51°17.413 2°52.376 -999 -999 -999 -999 -999
2008-06-03 06:52:10 51°17.431 2°52.374 -999 -999 -999 -999 -999
2008-06-03 06:52:15 51°17.447 2°52.373 -999 -999 -999 -999 -999
2008-06-03 06:52:20 51°17.462 2°52.371 -999 -999 -999 -999 -999
2008-06-03 06:52:25 51°17.477 2°52.37 -999 -999 -999 -999 -999
2008-06-03 06:52:30 51°17.492 2°52.369 -999 -999 -999 -999 -999
2008-06-03 06:52:35 51°17.507 2°52.367 -999 -999 -999 -999 -999
2008-06-03 06:52:40 51°17.523 2°52.366 -999 -999 -999 -999 -999
2008-06-03 06:52:45 51°17.538 2°52.364 -999 -999 -999 -999 -999
2008-06-03 06:52:50 51°17.553 2°52.363 -999 -999 -999 -999 -999
2008-06-03 06:52:55 51°17.568 2°52.362 -999 -999 -999 -999 -999
2008-06-03 06:53:00 51°17.583 2°52.36 -999 -999 -999 -999 -999
2008-06-03 06:53:04 51°17.595 2°52.359 -999 -999 -999 -999 -999
2008-06-03 06:53:10 51°17.614 2°52.357 -999 -999 -999 -999 -999
2008-06-03 06:53:15 51°17.629 2°52.356 -999 -999 -999 -999 -999
2008-06-03 06:53:20 51°17.644 2°52.354 -999 -999 -999 -999 -999
2008-06-03 06:53:24 51°17.656 2°52.353 -999 -999 -999 -999 -999
2008-06-03 06:53:30 51°17.674 2°52.352 -999 -999 -999 -999 -999
2008-06-03 06:53:35 51°17.689 2°52.351 -999 -999 -999 -999 -999
2008-06-03 06:53:40 51°17.704 2°52.35 -999 -999 -999 -999 -999
2008-06-03 06:53:44 51°17.717 2°52.349 -999 -999 -999 -999 -999
2008-06-03 06:53:50 51°17.735 2°52.348 -999 -999 -999 -999 -999
2008-06-03 06:53:55 51°17.75 2°52.347 -999 -999 -999 -999 -999
2008-06-03 06:54:00 51°17.765 2°52.346 -999 -999 -999 -999 -999
2008-06-03 06:54:05 51°17.78 2°52.346 -999 -999 -999 -999 -999
2008-06-03 06:54:10 51°17.795 2°52.349 -999 -999 -999 -999 -999
2008-06-03 06:54:15 51°17.809 2°52.352 -999 -999 -999 -999 -999
2008-06-03 06:54:20 51°17.824 2°52.356 -999 -999 -999 -999 -999
2008-06-03 06:54:25 51°17.839 2°52.361 -999 -999 -999 -999 -999
2008-06-03 06:54:30 51°17.853 2°52.367 -999 -999 -999 -999 -999
2008-06-03 06:54:35 51°17.868 2°52.373 -999 -999 -999 -999 -999
2008-06-03 06:54:40 51°17.882 2°52.379 -999 -999 -999 -999 -999
2008-06-03 06:54:45 51°17.896 2°52.386 -999 -999 -999 -999 -999
2008-06-03 06:54:50 51°17.91 2°52.393 -999 -999 -999 -999 -999
2008-06-03 06:54:55 51°17.924 2°52.402 -999 -999 -999 -999 -999
2008-06-03 06:54:59 51°17.935 2°52.409 -999 -999 -999 -999 -999
2008-06-03 06:55:05 51°17.951 2°52.422 -999 -999 -999 -999 -999
2008-06-03 06:55:10 51°17.964 2°52.433 -999 -999 -999 -999 -999
2008-06-03 06:55:15 51°17.976 2°52.445 -999 -999 -999 -999 -999
2008-06-03 06:55:20 51°17.989 2°52.457 -999 -999 -999 -999 -999
2008-06-03 06:55:24 51°17.999 2°52.468 -999 -999 -999 -999 -999
2008-06-03 06:55:30 51°18.013 2°52.484 -999 -999 -999 -999 -999
2008-06-03 06:55:35 51°18.025 2°52.499 -999 -999 -999 -999 -999
2008-06-03 06:55:40 51°18.037 2°52.514 -999 -999 -999 -999 -999
2008-06-03 06:55:44 51°18.046 2°52.526 -999 -999 -999 -999 -999
2008-06-03 06:55:50 51°18.06 2°52.544 -999 -999 -999 -999 -999
2008-06-03 06:55:55 51°18.071 2°52.559 -999 -999 -999 -999 -999
2008-06-03 06:56:00 51°18.083 2°52.574 -999 -999 -999 -999 -999
2008-06-03 06:56:04 51°18.092 2°52.586 -999 -999 -999 -999 -999
2008-06-03 06:56:10 51°18.106 2°52.604 -999 -999 -999 -999 -999
2008-06-03 06:56:15 51°18.117 2°52.619 -999 -999 -999 -999 -999
2008-06-03 06:56:20 51°18.129 2°52.634 -999 -999 -999 -999 -999
2008-06-03 06:56:25 51°18.14 2°52.65 -999 -999 -999 -999 -999
2008-06-03 06:56:30 51°18.15 2°52.667 -999 -999 -999 -999 -999
2008-06-03 06:56:35 51°18.16 2°52.685 -999 -999 -999 -999 -999
2008-06-03 06:56:40 51°18.169 2°52.703 -999 -999 -999 -999 -999
2008-06-03 06:56:45 51°18.178 2°52.722 -999 -999 -999 -999 -999
2008-06-03 06:56:50 51°18.187 2°52.741 -999 -999 -999 -999 -999
2008-06-03 06:56:55 51°18.196 2°52.76 -999 -999 -999 -999 -999
2008-06-03 06:57:00 51°18.205 2°52.779 -999 -999 -999 -999 -999
2008-06-03 06:57:05 51°18.214 2°52.798 -999 -999 -999 -999 -999
2008-06-03 06:57:10 51°18.223 2°52.818 -999 -999 -999 -999 -999
2008-06-03 06:57:15 51°18.231 2°52.838 -999 -999 -999 -999 -999
2008-06-03 06:57:19 51°18.238 2°52.854 -999 -999 -999 -999 -999
2008-06-03 06:57:25 51°18.247 2°52.878 -999 -999 -999 -999 -999
2008-06-03 06:57:30 51°18.255 2°52.899 -999 -999 -999 -999 -999
2008-06-03 06:57:35 51°18.263 2°52.92 -999 -999 -999 -999 -999
2008-06-03 06:57:40 51°18.27 2°52.941 -999 -999 -999 -999 -999
2008-06-03 06:57:44 51°18.276 2°52.957 -999 -999 -999 -999 -999
2008-06-03 06:57:50 51°18.286 2°52.982 -999 -999 -999 -999 -999
2008-06-03 06:57:55 51°18.294 2°53.002 -999 -999 -999 -999 -999
2008-06-03 06:58:00 51°18.302 2°53.022 -999 -999 -999 -999 -999
2008-06-03 06:58:04 51°18.309 2°53.038 -999 -999 -999 -999 -999
2008-06-03 06:58:10 51°18.318 2°53.062 -999 -999 -999 -999 -999
2008-06-03 06:58:15 51°18.326 2°53.081 -999 -999 -999 -999 -999
2008-06-03 06:58:20 51°18.334 2°53.101 -999 -999 -999 -999 -999
2008-06-03 06:58:25 51°18.342 2°53.121 -999 -999 -999 -999 -999
2008-06-03 06:58:30 51°18.351 2°53.141 -999 -999 -999 -999 -999
2008-06-03 06:58:35 51°18.359 2°53.161 -999 -999 -999 -999 -999
2008-06-03 06:58:40 51°18.367 2°53.181 -999 -999 -999 -999 -999
2008-06-03 06:58:44 51°18.373 2°53.196 -999 -999 -999 -999 -999
2008-06-03 06:58:50 51°18.383 2°53.22 -999 -999 -999 -999 -999
2008-06-03 06:58:55 51°18.391 2°53.241 -999 -999 -999 -999 -999
2008-06-03 06:59:00 51°18.399 2°53.261 -999 -999 -999 -999 -999
2008-06-03 06:59:05 51°18.407 2°53.281 -999 -999 -999 -999 -999
2008-06-03 06:59:10 51°18.415 2°53.301 -999 -999 -999 -999 -999
2008-06-03 06:59:15 51°18.423 2°53.322 -999 -999 -999 -999 -999
2008-06-03 06:59:20 51°18.43 2°53.342 -999 -999 -999 -999 -999
2008-06-03 06:59:25 51°18.438 2°53.363 -999 -999 -999 -999 -999
2008-06-03 06:59:30 51°18.446 2°53.384 -999 -999 -999 -999 -999
2008-06-03 06:59:35 51°18.453 2°53.405 -999 -999 -999 -999 -999
2008-06-03 06:59:40 51°18.461 2°53.426 -999 -999 -999 -999 -999
2008-06-03 06:59:45 51°18.468 2°53.447 -999 -999 -999 -999 -999
2008-06-03 06:59:50 51°18.475 2°53.468 -999 -999 -999 -999 -999
2008-06-03 06:59:55 51°18.483 2°53.489 -999 -999 -999 -999 -999
2008-06-03 07:00:00 51°18.49 2°53.509 -999 -999 -999 -999 -999
2008-06-03 07:00:04 51°18.496 2°53.526 -999 -999 -999 -999 -999
2008-06-03 07:00:10 51°18.506 2°53.55 -999 -999 -999 -999 -999
2008-06-03 07:00:15 51°18.513 2°53.571 -999 -999 -999 -999 -999
2008-06-03 07:00:20 51°18.521 2°53.592 -999 -999 -999 -999 -999
2008-06-03 07:00:24 51°18.527 2°53.608 -999 -999 -999 -999 -999
2008-06-03 07:00:30 51°18.536 2°53.633 -999 -999 -999 -999 -999
2008-06-03 07:00:35 51°18.543 2°53.654 -999 -999 -999 -999 -999
2008-06-03 07:00:40 51°18.551 2°53.675 -999 -999 -999 -999 -999
2008-06-03 07:00:45 51°18.558 2°53.695 -999 -999 -999 -999 -999
2008-06-03 07:00:50 51°18.565 2°53.716 -999 -999 -999 -999 -999
2008-06-03 07:00:55 51°18.573 2°53.737 -999 -999 -999 -999 -999
2008-06-03 07:01:00 51°18.58 2°53.758 -999 -999 -999 -999 -999
2008-06-03 07:01:05 51°18.588 2°53.778 -999 -999 -999 -999 -999
2008-06-03 07:01:10 51°18.596 2°53.799 -999 -999 -999 -999 -999
2008-06-03 07:01:15 51°18.604 2°53.819 -999 -999 -999 -999 -999
2008-06-03 07:01:20 51°18.611 2°53.84 -999 -999 -999 -999 -999
2008-06-03 07:01:25 51°18.619 2°53.861 -999 -999 -999 -999 -999
2008-06-03 07:01:30 51°18.626 2°53.881 -999 -999 -999 -999 -999
2008-06-03 07:01:35 51°18.633 2°53.902 -999 -999 -999 -999 -999
2008-06-03 07:01:40 51°18.64 2°53.924 -999 -999 -999 -999 -999
2008-06-03 07:01:45 51°18.648 2°53.945 -999 -999 -999 -999 -999
2008-06-03 07:01:50 51°18.654 2°53.966 -999 -999 -999 -999 -999
2008-06-03 07:01:55 51°18.661 2°53.988 -999 -999 -999 -999 -999
2008-06-03 07:02:00 51°18.668 2°54.009 -999 -999 -999 -999 -999
2008-06-03 07:02:05 51°18.674 2°54.031 -999 -999 -999 -999 -999
2008-06-03 07:02:10 51°18.681 2°54.053 -999 -999 -999 -999 -999
2008-06-03 07:02:15 51°18.688 2°54.074 -999 -999 -999 -999 -999
2008-06-03 07:02:20 51°18.694 2°54.095 -999 -999 -999 -999 -999
2008-06-03 07:02:24 51°18.7 2°54.113 -999 -999 -999 -999 -999
2008-06-03 07:02:30 51°18.708 2°54.138 -999 -999 -999 -999 -999
2008-06-03 07:02:35 51°18.715 2°54.16 -999 -999 -999 -999 -999
2008-06-03 07:02:40 51°18.722 2°54.181 -999 -999 -999 -999 -999
2008-06-03 07:02:44 51°18.727 2°54.198 -999 -999 -999 -999 -999
2008-06-03 07:02:50 51°18.736 2°54.224 -999 -999 -999 -999 -999
2008-06-03 07:02:55 51°18.743 2°54.245 -999 -999 -999 -999 -999
2008-06-03 07:03:00 51°18.75 2°54.266 -999 -999 -999 -999 -999
2008-06-03 07:03:04 51°18.755 2°54.283 -999 -999 -999 -999 -999
2008-06-03 07:03:10 51°18.764 2°54.309 -999 -999 -999 -999 -999
2008-06-03 07:03:15 51°18.771 2°54.33 -999 -999 -999 -999 -999
2008-06-03 07:03:20 51°18.777 2°54.352 -999 -999 -999 -999 -999
2008-06-03 07:03:25 51°18.784 2°54.373 -999 -999 -999 -999 -999
2008-06-03 07:03:30 51°18.791 2°54.395 -999 -999 -999 -999 -999
2008-06-03 07:03:35 51°18.798 2°54.416 -999 -999 -999 -999 -999
2008-06-03 07:03:40 51°18.805 2°54.437 -999 -999 -999 -999 -999
2008-06-03 07:03:45 51°18.812 2°54.458 -999 -999 -999 -999 -999
2008-06-03 07:03:50 51°18.819 2°54.479 -999 -999 -999 -999 -999
2008-06-03 07:03:55 51°18.826 2°54.501 -999 -999 -999 -999 -999
2008-06-03 07:04:00 51°18.833 2°54.522 -999 -999 -999 -999 -999
2008-06-03 07:04:05 51°18.84 2°54.544 -999 -999 -999 -999 -999
2008-06-03 07:04:10 51°18.847 2°54.565 -999 -999 -999 -999 -999
2008-06-03 07:04:15 51°18.854 2°54.587 -999 -999 -999 -999 -999
2008-06-03 07:04:20 51°18.861 2°54.608 -999 -999 -999 -999 -999
2008-06-03 07:04:25 51°18.867 2°54.63 -999 -999 -999 -999 -999
2008-06-03 07:04:30 51°18.874 2°54.651 -999 -999 -999 -999 -999
2008-06-03 07:04:35 51°18.882 2°54.673 -999 -999 -999 -999 -999
2008-06-03 07:04:40 51°18.889 2°54.694 -999 -999 -999 -999 -999
2008-06-03 07:04:44 51°18.894 2°54.711 -999 -999 -999 -999 -999
2008-06-03 07:04:50 51°18.903 2°54.737 -999 -999 -999 -999 -999
2008-06-03 07:04:55 51°18.91 2°54.758 -999 -999 -999 -999 -999
2008-06-03 07:05:00 51°18.917 2°54.78 -999 -999 -999 -999 -999
2008-06-03 07:05:05 51°18.924 2°54.801 -999 -999 -999 -999 -999
2008-06-03 07:05:10 51°18.931 2°54.822 -999 -999 -999 -999 -999
2008-06-03 07:05:15 51°18.938 2°54.844 -999 -999 -999 -999 -999
2008-06-03 07:05:20 51°18.946 2°54.865 -999 -999 -999 -999 -999
2008-06-03 07:05:24 51°18.951 2°54.882 -999 -999 -999 -999 -999
2008-06-03 07:05:30 51°18.96 2°54.907 -999 -999 -999 -999 -999
2008-06-03 07:05:35 51°18.968 2°54.928 -999 -999 -999 -999 -999
2008-06-03 07:05:40 51°18.975 2°54.949 -999 -999 -999 -999 -999
2008-06-03 07:05:45 51°18.984 2°54.97 -999 -999 -999 -999 -999
2008-06-03 07:05:50 51°18.991 2°54.991 -999 -999 -999 -999 -999
2008-06-03 07:05:55 51°18.999 2°55.012 -999 -999 -999 -999 -999
2008-06-03 07:06:00 51°19.006 2°55.033 -999 -999 -999 -999 -999
2008-06-03 07:06:05 51°19.014 2°55.054 -999 -999 -999 -999 -999
2008-06-03 07:06:10 51°19.021 2°55.076 -999 -999 -999 -999 -999
2008-06-03 07:06:15 51°19.028 2°55.097 -999 -999 -999 -999 -999
2008-06-03 07:06:20 51°19.035 2°55.118 -999 -999 -999 -999 -999
2008-06-03 07:06:25 51°19.043 2°55.14 -999 -999 -999 -999 -999
2008-06-03 07:06:30 51°19.05 2°55.161 -999 -999 -999 -999 -999
2008-06-03 07:06:35 51°19.057 2°55.183 -999 -999 -999 -999 -999
2008-06-03 07:06:40 51°19.064 2°55.205 -999 -999 -999 -999 -999
2008-06-03 07:06:45 51°19.071 2°55.226 -999 -999 -999 -999 -999
2008-06-03 07:06:50 51°19.079 2°55.248 -999 -999 -999 -999 -999
2008-06-03 07:06:55 51°19.086 2°55.269 -999 -999 -999 -999 -999
2008-06-03 07:07:00 51°19.093 2°55.291 -999 -999 -999 -999 -999
2008-06-03 07:07:04 51°19.099 2°55.308 -999 -999 -999 -999 -999
2008-06-03 07:07:10 51°19.108 2°55.334 -999 -999 -999 -999 -999
2008-06-03 07:07:15 51°19.115 2°55.355 -999 -999 -999 -999 -999
2008-06-03 07:07:20 51°19.123 2°55.376 -999 -999 -999 -999 -999
2008-06-03 07:07:25 51°19.13 2°55.397 -999 -999 -999 -999 -999
2008-06-03 07:07:30 51°19.137 2°55.419 -999 -999 -999 -999 -999
2008-06-03 07:07:35 51°19.144 2°55.442 -999 -999 -999 -999 -999
2008-06-03 07:07:40 51°19.151 2°55.464 -999 -999 -999 -999 -999
2008-06-03 07:07:45 51°19.158 2°55.486 -999 -999 -999 -999 -999
2008-06-03 07:07:50 51°19.165 2°55.508 -999 -999 -999 -999 -999
2008-06-03 07:07:55 51°19.172 2°55.529 -999 -999 -999 -999 -999
2008-06-03 07:08:00 51°19.179 2°55.551 -999 -999 -999 -999 -999
2008-06-03 07:08:05 51°19.187 2°55.572 -999 -999 -999 -999 -999
2008-06-03 07:08:10 51°19.194 2°55.593 -999 -999 -999 -999 -999
2008-06-03 07:08:15 51°19.202 2°55.615 -999 -999 -999 -999 -999
2008-06-03 07:08:20 51°19.209 2°55.636 -999 -999 -999 -999 -999
2008-06-03 07:08:25 51°19.216 2°55.658 -999 -999 -999 -999 -999
2008-06-03 07:08:30 51°19.223 2°55.68 -999 -999 -999 -999 -999
2008-06-03 07:08:35 51°19.231 2°55.701 -999 -999 -999 -999 -999
2008-06-03 07:08:40 51°19.238 2°55.723 -999 -999 -999 -999 -999
2008-06-03 07:08:45 51°19.245 2°55.744 -999 -999 -999 -999 -999
2008-06-03 07:08:50 51°19.252 2°55.766 -999 -999 -999 -999 -999
2008-06-03 07:08:55 51°19.259 2°55.788 -999 -999 -999 -999 -999
2008-06-03 07:09:00 51°19.267 2°55.809 -999 -999 -999 -999 -999
2008-06-03 07:09:04 51°19.273 2°55.826 -999 -999 -999 -999 -999
2008-06-03 07:09:10 51°19.281 2°55.852 -999 -999 -999 -999 -999
2008-06-03 07:09:15 51°19.288 2°55.874 -999 -999 -999 -999 -999
2008-06-03 07:09:20 51°19.295 2°55.895 -999 -999 -999 -999 -999
2008-06-03 07:09:24 51°19.301 2°55.913 -999 -999 -999 -999 -999
2008-06-03 07:09:30 51°19.31 2°55.939 -999 -999 -999 -999 -999
2008-06-03 07:09:35 51°19.317 2°55.96 -999 -999 -999 -999 -999
2008-06-03 07:09:40 51°19.323 2°55.982 -999 -999 -999 -999 -999
2008-06-03 07:09:44 51°19.329 2°55.999 -999 -999 -999 -999 -999
2008-06-03 07:09:50 51°19.336 2°56.025 -999 -999 -999 -999 -999
2008-06-03 07:09:55 51°19.343 2°56.047 -999 -999 -999 -999 -999
2008-06-03 07:10:00 51°19.35 2°56.069 -999 -999 -999 -999 -999
2008-06-03 07:10:05 51°19.356 2°56.091 -999 -999 -999 -999 -999
2008-06-03 07:10:10 51°19.363 2°56.112 -999 -999 -999 -999 -999
2008-06-03 07:10:15 51°19.37 2°56.134 -999 -999 -999 -999 -999
2008-06-03 07:10:20 51°19.377 2°56.156 -999 -999 -999 -999 -999
2008-06-03 07:10:25 51°19.384 2°56.178 -999 -999 -999 -999 -999
2008-06-03 07:10:30 51°19.39 2°56.2 -999 -999 -999 -999 -999
2008-06-03 07:10:35 51°19.396 2°56.223 -999 -999 -999 -999 -999
2008-06-03 07:10:40 51°19.402 2°56.245 -999 -999 -999 -999 -999
2008-06-03 07:10:45 51°19.407 2°56.268 -999 -999 -999 -999 -999
2008-06-03 07:10:50 51°19.413 2°56.291 -999 -999 -999 -999 -999
2008-06-03 07:10:55 51°19.418 2°56.313 -999 -999 -999 -999 -999
2008-06-03 07:11:00 51°19.424 2°56.337 -999 -999 -999 -999 -999
2008-06-03 07:11:05 51°19.429 2°56.36 -999 -999 -999 -999 -999
2008-06-03 07:11:10 51°19.434 2°56.383 -999 -999 -999 -999 -999
2008-06-03 07:11:15 51°19.439 2°56.406 -999 -999 -999 -999 -999
2008-06-03 07:11:20 51°19.443 2°56.43 -999 -999 -999 -999 -999
2008-06-03 07:11:25 51°19.448 2°56.453 -999 -999 -999 -999 -999
2008-06-03 07:11:30 51°19.453 2°56.477 -999 -999 -999 -999 -999
2008-06-03 07:11:35 51°19.457 2°56.5 -999 -999 -999 -999 -999
2008-06-03 07:11:40 51°19.462 2°56.524 -999 -999 -999 -999 -999
2008-06-03 07:11:45 51°19.466 2°56.547 -999 -999 -999 -999 -999
2008-06-03 07:11:50 51°19.471 2°56.57 -999 -999 -999 -999 -999
2008-06-03 07:11:55 51°19.476 2°56.594 -999 -999 -999 -999 -999
2008-06-03 07:12:00 51°19.481 2°56.617 -999 -999 -999 -999 -999
2008-06-03 07:12:04 51°19.484 2°56.636 -999 -999 -999 -999 -999
2008-06-03 07:12:10 51°19.49 2°56.664 -999 -999 -999 -999 -999
2008-06-03 07:12:15 51°19.495 2°56.687 -999 -999 -999 -999 -999
2008-06-03 07:12:20 51°19.5 2°56.71 -999 -999 -999 -999 -999
2008-06-03 07:12:25 51°19.506 2°56.733 -999 -999 -999 -999 -999
2008-06-03 07:12:30 51°19.511 2°56.755 -999 -999 -999 -999 -999
2008-06-03 07:12:35 51°19.517 2°56.778 -999 -999 -999 -999 -999
2008-06-03 07:12:40 51°19.523 2°56.8 -999 -999 -999 -999 -999
2008-06-03 07:12:45 51°19.529 2°56.823 -999 -999 -999 -999 -999
2008-06-03 07:12:50 51°19.535 2°56.845 -999 -999 -999 -999 -999
2008-06-03 07:12:55 51°19.54 2°56.868 -999 -999 -999 -999 -999
2008-06-03 07:13:00 51°19.546 2°56.89 -999 -999 -999 -999 -999
2008-06-03 07:13:05 51°19.552 2°56.913 -999 -999 -999 -999 -999
2008-06-03 07:13:10 51°19.558 2°56.935 -999 -999 -999 -999 -999
2008-06-03 07:13:15 51°19.564 2°56.957 -999 -999 -999 -999 -999
2008-06-03 07:13:19 51°19.569 2°56.975 -999 -999 -999 -999 -999
2008-06-03 07:13:25 51°19.576 2°57.002 -999 -999 -999 -999 -999
2008-06-03 07:13:30 51°19.581 2°57.025 -999 -999 -999 -999 -999
2008-06-03 07:13:35 51°19.587 2°57.047 -999 -999 -999 -999 -999
2008-06-03 07:13:40 51°19.593 2°57.069 -999 -999 -999 -999 -999
2008-06-03 07:13:44 51°19.598 2°57.087 -999 -999 -999 -999 -999
2008-06-03 07:13:50 51°19.604 2°57.114 -999 -999 -999 -999 -999
2008-06-03 07:13:55 51°19.61 2°57.136 -999 -999 -999 -999 -999
2008-06-03 07:14:00 51°19.615 2°57.159 -999 -999 -999 -999 -999
2008-06-03 07:14:04 51°19.619 2°57.178 -999 -999 -999 -999 -999
2008-06-03 07:14:10 51°19.625 2°57.206 -999 -999 -999 -999 -999
2008-06-03 07:14:15 51°19.629 2°57.229 -999 -999 -999 -999 -999
2008-06-03 07:14:20 51°19.634 2°57.252 -999 -999 -999 -999 -999
2008-06-03 07:14:25 51°19.638 2°57.276 -999 -999 -999 -999 -999
2008-06-03 07:14:30 51°19.643 2°57.299 -999 -999 -999 -999 -999
2008-06-03 07:14:35 51°19.648 2°57.322 -999 -999 -999 -999 -999
2008-06-03 07:14:40 51°19.653 2°57.345 -999 -999 -999 -999 -999
2008-06-03 07:14:45 51°19.658 2°57.369 -999 -999 -999 -999 -999
2008-06-03 07:14:50 51°19.662 2°57.392 -999 -999 -999 -999 -999
2008-06-03 07:14:55 51°19.667 2°57.416 -999 -999 -999 -999 -999
2008-06-03 07:15:00 51°19.67 2°57.44 -999 -999 -999 -999 -999
2008-06-03 07:15:05 51°19.674 2°57.464 -999 -999 -999 -999 -999
2008-06-03 07:15:10 51°19.678 2°57.487 -999 -999 -999 -999 -999
2008-06-03 07:15:15 51°19.682 2°57.511 -999 -999 -999 -999 -999
2008-06-03 07:15:20 51°19.686 2°57.535 -999 -999 -999 -999 -999
2008-06-03 07:15:25 51°19.69 2°57.559 -999 -999 -999 -999 -999
2008-06-03 07:15:30 51°19.694 2°57.582 -999 -999 -999 -999 -999
2008-06-03 07:15:35 51°19.699 2°57.606 -999 -999 -999 -999 -999
2008-06-03 07:15:40 51°19.704 2°57.629 -999 -999 -999 -999 -999
2008-06-03 07:15:45 51°19.708 2°57.652 -999 -999 -999 -999 -999
2008-06-03 07:15:50 51°19.713 2°57.676 -999 -999 -999 -999 -999
2008-06-03 07:15:55 51°19.717 2°57.699 -999 -999 -999 -999 -999
2008-06-03 07:16:00 51°19.722 2°57.723 -999 -999 -999 -999 -999
2008-06-03 07:16:04 51°19.726 2°57.741 -999 -999 -999 -999 -999
2008-06-03 07:16:10 51°19.732 2°57.769 -999 -999 -999 -999 -999
2008-06-03 07:16:15 51°19.737 2°57.792 -999 -999 -999 -999 -999
2008-06-03 07:16:20 51°19.742 2°57.815 -999 -999 -999 -999 -999
2008-06-03 07:16:24 51°19.746 2°57.834 -999 -999 -999 -999 -999
2008-06-03 07:16:30 51°19.752 2°57.862 -999 -999 -999 -999 -999
2008-06-03 07:16:35 51°19.756 2°57.885 -999 -999 -999 -999 -999
2008-06-03 07:16:40 51°19.761 2°57.908 -999 -999 -999 -999 -999
2008-06-03 07:16:45 51°19.766 2°57.931 -999 -999 -999 -999 -999
2008-06-03 07:16:50 51°19.771 2°57.954 -999 -999 -999 -999 -999
2008-06-03 07:16:55 51°19.776 2°57.977 -999 -999 -999 -999 -999
2008-06-03 07:17:00 51°19.78 2°58 -999 -999 -999 -999 -999
2008-06-03 07:17:05 51°19.785 2°58.023 -999 -999 -999 -999 -999
2008-06-03 07:17:10 51°19.79 2°58.046 -999 -999 -999 -999 -999
2008-06-03 07:17:15 51°19.795 2°58.069 -999 -999 -999 -999 -999
2008-06-03 07:17:20 51°19.8 2°58.092 -999 -999 -999 -999 -999
2008-06-03 07:17:25 51°19.804 2°58.115 -999 -999 -999 -999 -999
2008-06-03 07:17:30 51°19.809 2°58.138 -999 -999 -999 -999 -999
2008-06-03 07:17:35 51°19.813 2°58.161 -999 -999 -999 -999 -999
2008-06-03 07:17:40 51°19.818 2°58.184 -999 -999 -999 -999 -999
2008-06-03 07:17:45 51°19.823 2°58.207 -999 -999 -999 -999 -999
2008-06-03 07:17:50 51°19.827 2°58.23 -999 -999 -999 -999 -999
2008-06-03 07:17:55 51°19.832 2°58.253 -999 -999 -999 -999 -999
2008-06-03 07:18:00 51°19.836 2°58.276 -999 -999 -999 -999 -999
2008-06-03 07:18:05 51°19.841 2°58.299 -999 -999 -999 -999 -999
2008-06-03 07:18:10 51°19.846 2°58.321 -999 -999 -999 -999 -999
2008-06-03 07:18:15 51°19.85 2°58.344 -999 -999 -999 -999 -999
2008-06-03 07:18:20 51°19.855 2°58.367 -999 -999 -999 -999 -999
2008-06-03 07:18:25 51°19.859 2°58.39 -999 -999 -999 -999 -999
2008-06-03 07:18:30 51°19.864 2°58.413 -999 -999 -999 -999 -999
2008-06-03 07:18:35 51°19.868 2°58.436 -999 -999 -999 -999 -999
2008-06-03 07:18:40 51°19.873 2°58.458 -999 -999 -999 -999 -999
2008-06-03 07:18:44 51°19.876 2°58.477 -999 -999 -999 -999 -999
2008-06-03 07:18:50 51°19.882 2°58.504 -999 -999 -999 -999 -999
2008-06-03 07:18:55 51°19.887 2°58.527 -999 -999 -999 -999 -999
2008-06-03 07:19:00 51°19.891 2°58.549 -999 -999 -999 -999 -999
2008-06-03 07:19:05 51°19.896 2°58.572 -999 -999 -999 -999 -999
2008-06-03 07:19:10 51°19.901 2°58.595 -999 -999 -999 -999 -999
2008-06-03 07:19:15 51°19.905 2°58.617 -999 -999 -999 -999 -999
2008-06-03 07:19:20 51°19.91 2°58.64 -999 -999 -999 -999 -999
2008-06-03 07:19:25 51°19.914 2°58.663 -999 -999 -999 -999 -999
2008-06-03 07:19:30 51°19.919 2°58.686 -999 -999 -999 -999 -999
2008-06-03 07:19:35 51°19.922 2°58.709 -999 -999 -999 -999 -999
2008-06-03 07:19:40 51°19.926 2°58.732 -999 -999 -999 -999 -999
2008-06-03 07:19:45 51°19.929 2°58.756 -999 -999 -999 -999 -999
2008-06-03 07:19:50 51°19.933 2°58.779 -999 -999 -999 -999 -999
2008-06-03 07:19:55 51°19.937 2°58.803 -999 -999 -999 -999 -999
2008-06-03 07:19:59 51°19.94 2°58.821 -999 -999 -999 -999 -999
2008-06-03 07:20:05 51°19.943 2°58.849 -999 -999 -999 -999 -999
2008-06-03 07:20:10 51°19.947 2°58.873 -999 -999 -999 -999 -999
2008-06-03 07:20:15 51°19.951 2°58.896 -999 -999 -999 -999 -999
2008-06-03 07:20:20 51°19.955 2°58.919 -999 -999 -999 -999 -999
2008-06-03 07:20:25 51°19.958 2°58.942 -999 -999 -999 -999 -999
2008-06-03 07:20:30 51°19.962 2°58.966 -999 -999 -999 -999 -999
2008-06-03 07:20:35 51°19.966 2°58.989 -999 -999 -999 -999 -999
2008-06-03 07:20:40 51°19.97 2°59.012 -999 -999 -999 -999 -999
2008-06-03 07:20:44 51°19.974 2°59.031 -999 -999 -999 -999 -999
2008-06-03 07:20:50 51°19.978 2°59.059 -999 -999 -999 -999 -999
2008-06-03 07:20:55 51°19.982 2°59.082 -999 -999 -999 -999 -999
2008-06-03 07:21:00 51°19.987 2°59.105 -999 -999 -999 -999 -999
2008-06-03 07:21:05 51°19.991 2°59.128 -999 -999 -999 -999 -999
2008-06-03 07:21:10 51°19.996 2°59.151 -999 -999 -999 -999 -999
2008-06-03 07:21:15 51°20 2°59.174 -999 -999 -999 -999 -999
2008-06-03 07:21:20 51°20.005 2°59.196 -999 -999 -999 -999 -999
2008-06-03 07:21:24 51°20.009 2°59.215 -999 -999 -999 -999 -999
2008-06-03 07:21:30 51°20.015 2°59.242 -999 -999 -999 -999 -999
2008-06-03 07:21:35 51°20.02 2°59.265 -999 -999 -999 -999 -999
2008-06-03 07:21:40 51°20.025 2°59.288 -999 -999 -999 -999 -999
2008-06-03 07:21:45 51°20.029 2°59.31 -999 -999 -999 -999 -999
2008-06-03 07:21:50 51°20.034 2°59.333 -999 -999 -999 -999 -999
2008-06-03 07:21:55 51°20.039 2°59.356 -999 -999 -999 -999 -999
2008-06-03 07:22:00 51°20.044 2°59.379 -999 -999 -999 -999 -999
2008-06-03 07:22:05 51°20.049 2°59.401 -999 -999 -999 -999 -999
2008-06-03 07:22:10 51°20.054 2°59.424 -999 -999 -999 -999 -999
2008-06-03 07:22:15 51°20.059 2°59.447 -999 -999 -999 -999 -999
2008-06-03 07:22:20 51°20.063 2°59.47 -999 -999 -999 -999 -999
2008-06-03 07:22:25 51°20.068 2°59.493 -999 -999 -999 -999 -999
2008-06-03 07:22:30 51°20.073 2°59.516 -999 -999 -999 -999 -999
2008-06-03 07:22:35 51°20.078 2°59.539 -999 -999 -999 -999 -999
2008-06-03 07:22:40 51°20.083 2°59.561 -999 -999 -999 -999 -999
2008-06-03 07:22:45 51°20.089 2°59.584 -999 -999 -999 -999 -999
2008-06-03 07:22:50 51°20.095 2°59.606 -999 -999 -999 -999 -999
2008-06-03 07:22:55 51°20.101 2°59.628 -999 -999 -999 -999 -999
2008-06-03 07:23:00 51°20.107 2°59.65 -999 -999 -999 -999 -999
2008-06-03 07:23:04 51°20.112 2°59.668 -999 -999 -999 -999 -999
2008-06-03 07:23:10 51°20.119 2°59.694 -999 -999 -999 -999 -999
2008-06-03 07:23:15 51°20.125 2°59.715 -999 -999 -999 -999 -999
2008-06-03 07:23:20 51°20.131 2°59.737 -999 -999 -999 -999 -999
2008-06-03 07:23:25 51°20.138 2°59.759 -999 -999 -999 -999 -999
2008-06-03 07:23:30 51°20.143 2°59.781 -999 -999 -999 -999 -999
2008-06-03 07:23:35 51°20.15 2°59.802 -999 -999 -999 -999 -999
2008-06-03 07:23:40 51°20.156 2°59.824 -999 -999 -999 -999 -999
2008-06-03 07:23:45 51°20.162 2°59.846 -999 -999 -999 -999 -999
2008-06-03 07:23:50 51°20.168 2°59.868 -999 -999 -999 -999 -999
2008-06-03 07:23:55 51°20.175 2°59.889 -999 -999 -999 -999 -999
2008-06-03 07:24:00 51°20.18 2°59.911 -999 -999 -999 -999 -999
2008-06-03 07:24:05 51°20.186 2°59.933 -999 -999 -999 -999 -999
2008-06-03 07:24:10 51°20.192 2°59.955 -999 -999 -999 -999 -999
2008-06-03 07:24:15 51°20.198 2°59.977 -999 -999 -999 -999 -999
2008-06-03 07:24:20 51°20.204 2°59.999 -999 -999 -999 -999 -999
2008-06-03 07:24:25 51°20.21 3°0.021 -999 -999 -999 -999 -999
2008-06-03 07:24:30 51°20.216 3°0.042 -999 -999 -999 -999 -999
2008-06-03 07:24:35 51°20.221 3°0.065 -999 -999 -999 -999 -999
2008-06-03 07:24:40 51°20.227 3°0.087 -999 -999 -999 -999 -999
2008-06-03 07:24:45 51°20.232 3°0.109 -999 -999 -999 -999 -999
2008-06-03 07:24:50 51°20.237 3°0.131 -999 -999 -999 -999 -999
2008-06-03 07:24:55 51°20.243 3°0.153 -999 -999 -999 -999 -999
2008-06-03 07:25:00 51°20.248 3°0.175 -999 -999 -999 -999 -999
2008-06-03 07:25:05 51°20.253 3°0.198 -999 -999 -999 -999 -999
2008-06-03 07:25:10 51°20.258 3°0.22 -999 -999 -999 -999 -999
2008-06-03 07:25:15 51°20.263 3°0.242 -999 -999 -999 -999 -999
2008-06-03 07:25:20 51°20.268 3°0.264 -999 -999 -999 -999 -999
2008-06-03 07:25:24 51°20.272 3°0.282 -999 -999 -999 -999 -999
2008-06-03 07:25:30 51°20.279 3°0.309 -999 -999 -999 -999 -999
2008-06-03 07:25:35 51°20.284 3°0.331 -999 -999 -999 -999 -999
2008-06-03 07:25:40 51°20.289 3°0.354 -999 -999 -999 -999 -999
2008-06-03 07:25:45 51°20.294 3°0.376 -999 -999 -999 -999 -999
2008-06-03 07:25:50 51°20.299 3°0.398 -999 -999 -999 -999 -999
2008-06-03 07:25:55 51°20.304 3°0.421 -999 -999 -999 -999 -999
2008-06-03 07:26:00 51°20.309 3°0.443 -999 -999 -999 -999 -999
2008-06-03 07:26:05 51°20.314 3°0.466 -999 -999 -999 -999 -999
2008-06-03 07:26:10 51°20.319 3°0.488 -999 -999 -999 -999 -999
2008-06-03 07:26:15 51°20.323 3°0.51 -999 -999 -999 -999 -999
2008-06-03 07:26:20 51°20.329 3°0.533 -999 -999 -999 -999 -999
2008-06-03 07:26:25 51°20.334 3°0.555 -999 -999 -999 -999 -999
2008-06-03 07:26:30 51°20.338 3°0.578 -999 -999 -999 -999 -999
2008-06-03 07:26:35 51°20.343 3°0.6 -999 -999 -999 -999 -999
2008-06-03 07:26:40 51°20.348 3°0.622 -999 -999 -999 -999 -999
2008-06-03 07:26:45 51°20.352 3°0.645 -999 -999 -999 -999 -999
2008-06-03 07:26:50 51°20.358 3°0.667 -999 -999 -999 -999 -999
2008-06-03 07:26:55 51°20.362 3°0.689 -999 -999 -999 -999 -999
2008-06-03 07:27:00 51°20.367 3°0.712 -999 -999 -999 -999 -999
2008-06-03 07:27:05 51°20.372 3°0.734 -999 -999 -999 -999 -999
2008-06-03 07:27:10 51°20.377 3°0.757 -999 -999 -999 -999 -999
2008-06-03 07:27:15 51°20.382 3°0.779 -999 -999 -999 -999 -999
2008-06-03 07:27:20 51°20.386 3°0.801 -999 -999 -999 -999 -999
2008-06-03 07:27:25 51°20.391 3°0.824 -999 -999 -999 -999 -999
2008-06-03 07:27:30 51°20.396 3°0.846 -999 -999 -999 -999 -999
2008-06-03 07:27:35 51°20.4 3°0.869 -999 -999 -999 -999 -999
2008-06-03 07:27:40 51°20.406 3°0.891 -999 -999 -999 -999 -999
2008-06-03 07:27:45 51°20.41 3°0.914 -999 -999 -999 -999 -999
2008-06-03 07:27:50 51°20.415 3°0.936 -999 -999 -999 -999 -999
2008-06-03 07:27:55 51°20.42 3°0.958 -999 -999 -999 -999 -999
2008-06-03 07:28:00 51°20.424 3°0.981 -999 -999 -999 -999 -999
2008-06-03 07:28:04 51°20.429 3°0.998 -999 -999 -999 -999 -999
2008-06-03 07:28:10 51°20.433 3°1.025 -999 -999 -999 -999 -999
2008-06-03 07:28:15 51°20.439 3°1.048 -999 -999 -999 -999 -999
2008-06-03 07:28:20 51°20.443 3°1.071 -999 -999 -999 -999 -999
2008-06-03 07:28:25 51°20.448 3°1.093 -999 -999 -999 -999 -999
2008-06-03 07:28:30 51°20.453 3°1.115 -999 -999 -999 -999 -999
2008-06-03 07:28:35 51°20.457 3°1.138 -999 -999 -999 -999 -999
2008-06-03 07:28:40 51°20.462 3°1.161 -999 -999 -999 -999 -999
2008-06-03 07:28:45 51°20.466 3°1.184 -999 -999 -999 -999 -999
2008-06-03 07:28:50 51°20.47 3°1.206 -999 -999 -999 -999 -999
2008-06-03 07:28:55 51°20.474 3°1.23 -999 -999 -999 -999 -999
2008-06-03 07:29:00 51°20.478 3°1.253 -999 -999 -999 -999 -999
2008-06-03 07:29:05 51°20.482 3°1.276 -999 -999 -999 -999 -999
2008-06-03 07:29:10 51°20.485 3°1.299 -999 -999 -999 -999 -999
2008-06-03 07:29:15 51°20.489 3°1.322 -999 -999 -999 -999 -999
2008-06-03 07:29:20 51°20.493 3°1.346 -999 -999 -999 -999 -999
2008-06-03 07:29:25 51°20.497 3°1.369 -999 -999 -999 -999 -999
2008-06-03 07:29:30 51°20.501 3°1.393 -999 -999 -999 -999 -999
2008-06-03 07:29:35 51°20.504 3°1.416 -999 -999 -999 -999 -999
2008-06-03 07:29:40 51°20.508 3°1.439 -999 -999 -999 -999 -999
2008-06-03 07:29:45 51°20.512 3°1.463 -999 -999 -999 -999 -999
2008-06-03 07:29:50 51°20.516 3°1.486 -999 -999 -999 -999 -999
2008-06-03 07:29:55 51°20.52 3°1.509 -999 -999 -999 -999 -999
2008-06-03 07:30:00 51°20.524 3°1.533 -999 -999 -999 -999 -999
2008-06-03 07:30:05 51°20.528 3°1.556 -999 -999 -999 -999 -999
2008-06-03 07:30:10 51°20.532 3°1.58 -999 -999 -999 -999 -999
2008-06-03 07:30:15 51°20.536 3°1.603 -999 -999 -999 -999 -999
2008-06-03 07:30:20 51°20.54 3°1.627 -999 -999 -999 -999 -999
2008-06-03 07:30:25 51°20.544 3°1.65 -999 -999 -999 -999 -999
2008-06-03 07:30:30 51°20.548 3°1.673 -999 -999 -999 -999 -999
2008-06-03 07:30:35 51°20.553 3°1.696 -999 -999 -999 -999 -999
2008-06-03 07:30:40 51°20.557 3°1.72 -999 -999 -999 -999 -999
2008-06-03 07:30:45 51°20.561 3°1.743 -999 -999 -999 -999 -999
2008-06-03 07:30:50 51°20.565 3°1.766 -999 -999 -999 -999 -999
2008-06-03 07:30:55 51°20.57 3°1.79 -999 -999 -999 -999 -999
2008-06-03 07:31:00 51°20.574 3°1.813 -999 -999 -999 -999 -999
2008-06-03 07:31:05 51°20.578 3°1.836 -999 -999 -999 -999 -999
2008-06-03 07:31:10 51°20.583 3°1.859 -999 -999 -999 -999 -999
2008-06-03 07:31:15 51°20.588 3°1.881 -999 -999 -999 -999 -999
2008-06-03 07:31:20 51°20.593 3°1.904 -999 -999 -999 -999 -999
2008-06-03 07:31:25 51°20.598 3°1.926 -999 -999 -999 -999 -999
2008-06-03 07:31:30 51°20.603 3°1.949 -999 -999 -999 -999 -999
2008-06-03 07:31:35 51°20.609 3°1.971 -999 -999 -999 -999 -999
2008-06-03 07:31:40 51°20.615 3°1.993 -999 -999 -999 -999 -999
2008-06-03 07:31:45 51°20.62 3°2.015 -999 -999 -999 -999 -999
2008-06-03 07:31:50 51°20.625 3°2.038 -999 -999 -999 -999 -999
2008-06-03 07:31:55 51°20.63 3°2.06 -999 -999 -999 -999 -999
2008-06-03 07:32:00 51°20.635 3°2.083 -999 -999 -999 -999 -999
2008-06-03 07:32:05 51°20.64 3°2.105 -999 -999 -999 -999 -999
2008-06-03 07:32:10 51°20.645 3°2.128 -999 -999 -999 -999 -999
2008-06-03 07:32:15 51°20.65 3°2.15 -999 -999 -999 -999 -999
2008-06-03 07:32:20 51°20.654 3°2.173 -999 -999 -999 -999 -999
2008-06-03 07:32:24 51°20.658 3°2.192 -999 -999 -999 -999 -999
2008-06-03 07:32:30 51°20.664 3°2.219 -999 -999 -999 -999 -999
2008-06-03 07:32:35 51°20.668 3°2.241 -999 -999 -999 -999 -999
2008-06-03 07:32:40 51°20.673 3°2.264 -999 -999 -999 -999 -999
2008-06-03 07:32:45 51°20.678 3°2.287 -999 -999 -999 -999 -999
2008-06-03 07:32:50 51°20.683 3°2.309 -999 -999 -999 -999 -999
2008-06-03 07:32:55 51°20.688 3°2.332 -999 -999 -999 -999 -999
2008-06-03 07:33:00 51°20.694 3°2.354 -999 -999 -999 -999 -999
2008-06-03 07:33:05 51°20.699 3°2.376 -999 -999 -999 -999 -999
2008-06-03 07:33:10 51°20.705 3°2.398 -999 -999 -999 -999 -999
2008-06-03 07:33:15 51°20.711 3°2.421 -999 -999 -999 -999 -999
2008-06-03 07:33:20 51°20.717 3°2.443 -999 -999 -999 -999 -999
2008-06-03 07:33:25 51°20.722 3°2.465 -999 -999 -999 -999 -999
2008-06-03 07:33:30 51°20.727 3°2.488 -999 -999 -999 -999 -999
2008-06-03 07:33:35 51°20.732 3°2.51 -999 -999 -999 -999 -999
2008-06-03 07:33:40 51°20.737 3°2.533 -999 -999 -999 -999 -999
2008-06-03 07:33:45 51°20.743 3°2.556 -999 -999 -999 -999 -999
2008-06-03 07:33:50 51°20.749 3°2.578 -999 -999 -999 -999 -999
2008-06-03 07:33:55 51°20.755 3°2.6 -999 -999 -999 -999 -999
2008-06-03 07:34:00 51°20.761 3°2.622 -999 -999 -999 -999 -999
2008-06-03 07:34:05 51°20.767 3°2.644 -999 -999 -999 -999 -999
2008-06-03 07:34:10 51°20.773 3°2.666 -999 -999 -999 -999 -999
2008-06-03 07:34:15 51°20.779 3°2.688 -999 -999 -999 -999 -999
2008-06-03 07:34:20 51°20.786 3°2.71 -999 -999 -999 -999 -999
2008-06-03 07:34:25 51°20.792 3°2.732 -999 -999 -999 -999 -999
2008-06-03 07:34:30 51°20.798 3°2.754 -999 -999 -999 -999 -999
2008-06-03 07:34:35 51°20.804 3°2.777 -999 -999 -999 -999 -999
2008-06-03 07:34:40 51°20.81 3°2.799 -999 -999 -999 -999 -999
2008-06-03 07:34:44 51°20.815 3°2.817 -999 -999 -999 -999 -999
2008-06-03 07:34:50 51°20.822 3°2.843 -999 -999 -999 -999 -999
2008-06-03 07:34:55 51°20.829 3°2.865 -999 -999 -999 -999 -999
2008-06-03 07:35:00 51°20.835 3°2.887 -999 -999 -999 -999 -999
2008-06-03 07:35:05 51°20.841 3°2.909 -999 -999 -999 -999 -999
2008-06-03 07:35:10 51°20.846 3°2.931 -999 -999 -999 -999 -999
2008-06-03 07:35:15 51°20.852 3°2.953 -999 -999 -999 -999 -999
2008-06-03 07:35:20 51°20.858 3°2.975 -999 -999 -999 -999 -999
2008-06-03 07:35:25 51°20.864 3°2.997 -999 -999 -999 -999 -999
2008-06-03 07:35:30 51°20.87 3°3.019 -999 -999 -999 -999 -999
2008-06-03 07:35:35 51°20.876 3°3.041 -999 -999 -999 -999 -999
2008-06-03 07:35:40 51°20.881 3°3.063 -999 -999 -999 -999 -999
2008-06-03 07:35:45 51°20.887 3°3.085 -999 -999 -999 -999 -999
2008-06-03 07:35:50 51°20.893 3°3.107 -999 -999 -999 -999 -999
2008-06-03 07:35:55 51°20.899 3°3.129 -999 -999 -999 -999 -999
2008-06-03 07:36:00 51°20.904 3°3.151 -999 -999 -999 -999 -999
2008-06-03 07:36:05 51°20.91 3°3.173 -999 -999 -999 -999 -999
2008-06-03 07:36:10 51°20.916 3°3.195 -999 -999 -999 -999 -999
2008-06-03 07:36:15 51°20.922 3°3.217 -999 -999 -999 -999 -999
2008-06-03 07:36:20 51°20.927 3°3.238 -999 -999 -999 -999 -999
2008-06-03 07:36:25 51°20.933 3°3.26 -999 -999 -999 -999 -999
2008-06-03 07:36:30 51°20.939 3°3.282 -999 -999 -999 -999 -999
2008-06-03 07:36:35 51°20.945 3°3.304 -999 -999 -999 -999 -999
2008-06-03 07:36:40 51°20.95 3°3.326 -999 -999 -999 -999 -999
2008-06-03 07:36:45 51°20.956 3°3.348 -999 -999 -999 -999 -999
2008-06-03 07:36:50 51°20.961 3°3.37 -999 -999 -999 -999 -999
2008-06-03 07:36:55 51°20.967 3°3.392 -999 -999 -999 -999 -999
2008-06-03 07:37:00 51°20.972 3°3.414 -999 -999 -999 -999 -999
2008-06-03 07:37:05 51°20.978 3°3.435 -999 -999 -999 -999 -999
2008-06-03 07:37:10 51°20.984 3°3.457 -999 -999 -999 -999 -999
2008-06-03 07:37:15 51°20.99 3°3.479 -999 -999 -999 -999 -999
2008-06-03 07:37:20 51°20.995 3°3.501 -999 -999 -999 -999 -999
2008-06-03 07:37:25 51°21.001 3°3.523 -999 -999 -999 -999 -999
2008-06-03 07:37:30 51°21.007 3°3.545 -999 -999 -999 -999 -999
2008-06-03 07:37:35 51°21.013 3°3.567 -999 -999 -999 -999 -999
2008-06-03 07:37:40 51°21.018 3°3.589 -999 -999 -999 -999 -999
2008-06-03 07:37:45 51°21.024 3°3.611 -999 -999 -999 -999 -999
2008-06-03 07:37:50 51°21.03 3°3.633 -999 -999 -999 -999 -999
2008-06-03 07:37:55 51°21.035 3°3.655 -999 -999 -999 -999 -999
2008-06-03 07:38:00 51°21.04 3°3.677 -999 -999 -999 -999 -999
2008-06-03 07:38:05 51°21.045 3°3.699 -999 -999 -999 -999 -999
2008-06-03 07:38:10 51°21.05 3°3.722 -999 -999 -999 -999 -999
2008-06-03 07:38:15 51°21.055 3°3.744 -999 -999 -999 -999 -999
2008-06-03 07:38:20 51°21.061 3°3.766 -999 -999 -999 -999 -999
2008-06-03 07:38:25 51°21.066 3°3.787 -999 -999 -999 -999 -999
2008-06-03 07:38:30 51°21.072 3°3.81 -999 -999 -999 -999 -999
2008-06-03 07:38:35 51°21.078 3°3.831 -999 -999 -999 -999 -999
2008-06-03 07:38:40 51°21.084 3°3.853 -999 -999 -999 -999 -999
2008-06-03 07:38:44 51°21.088 3°3.871 -999 -999 -999 -999 -999
2008-06-03 07:38:50 51°21.095 3°3.897 -999 -999 -999 -999 -999
2008-06-03 07:38:55 51°21.101 3°3.918 -999 -999 -999 -999 -999
2008-06-03 07:39:00 51°21.107 3°3.94 -999 -999 -999 -999 -999
2008-06-03 07:39:04 51°21.111 3°3.957 -999 -999 -999 -999 -999
2008-06-03 07:39:10 51°21.118 3°3.983 -999 -999 -999 -999 -999
2008-06-03 07:39:15 51°21.124 3°4.005 -999 -999 -999 -999 -999
2008-06-03 07:39:20 51°21.13 3°4.027 -999 -999 -999 -999 -999
2008-06-03 07:39:25 51°21.136 3°4.048 -999 -999 -999 -999 -999
2008-06-03 07:39:30 51°21.142 3°4.07 -999 -999 -999 -999 -999
2008-06-03 07:39:35 51°21.148 3°4.091 -999 -999 -999 -999 -999
2008-06-03 07:39:40 51°21.153 3°4.113 -999 -999 -999 -999 -999
2008-06-03 07:39:45 51°21.159 3°4.135 -999 -999 -999 -999 -999
2008-06-03 07:39:50 51°21.165 3°4.157 -999 -999 -999 -999 -999
2008-06-03 07:39:55 51°21.171 3°4.178 -999 -999 -999 -999 -999
2008-06-03 07:40:00 51°21.176 3°4.2 -999 -999 -999 -999 -999
2008-06-03 07:40:05 51°21.181 3°4.222 -999 -999 -999 -999 -999
2008-06-03 07:40:10 51°21.186 3°4.244 -999 -999 -999 -999 -999
2008-06-03 07:40:15 51°21.191 3°4.267 -999 -999 -999 -999 -999
2008-06-03 07:40:20 51°21.196 3°4.289 -999 -999 -999 -999 -999
2008-06-03 07:40:25 51°21.201 3°4.312 -999 -999 -999 -999 -999
2008-06-03 07:40:30 51°21.206 3°4.335 -999 -999 -999 -999 -999
2008-06-03 07:40:35 51°21.211 3°4.357 -999 -999 -999 -999 -999
2008-06-03 07:40:40 51°21.216 3°4.38 -999 -999 -999 -999 -999
2008-06-03 07:40:45 51°21.221 3°4.402 -999 -999 -999 -999 -999
2008-06-03 07:40:50 51°21.226 3°4.425 -999 -999 -999 -999 -999
2008-06-03 07:40:55 51°21.232 3°4.446 -999 -999 -999 -999 -999
2008-06-03 07:41:00 51°21.238 3°4.469 -999 -999 -999 -999 -999
2008-06-03 07:41:05 51°21.244 3°4.49 -999 -999 -999 -999 -999
2008-06-03 07:41:10 51°21.25 3°4.512 -999 -999 -999 -999 -999
2008-06-03 07:41:15 51°21.256 3°4.534 -999 -999 -999 -999 -999
2008-06-03 07:41:20 51°21.262 3°4.556 -999 -999 -999 -999 -999
2008-06-03 07:41:24 51°21.267 3°4.574 -999 -999 -999 -999 -999
2008-06-03 07:41:30 51°21.274 3°4.599 -999 -999 -999 -999 -999
2008-06-03 07:41:35 51°21.28 3°4.621 -999 -999 -999 -999 -999
2008-06-03 07:41:40 51°21.286 3°4.643 -999 -999 -999 -999 -999
2008-06-03 07:41:45 51°21.292 3°4.665 -999 -999 -999 -999 -999
2008-06-03 07:41:50 51°21.298 3°4.687 -999 -999 -999 -999 -999
2008-06-03 07:41:55 51°21.304 3°4.709 -999 -999 -999 -999 -999
2008-06-03 07:42:00 51°21.31 3°4.731 -999 -999 -999 -999 -999
2008-06-03 07:42:05 51°21.316 3°4.753 -999 -999 -999 -999 -999
2008-06-03 07:42:10 51°21.322 3°4.775 -999 -999 -999 -999 -999
2008-06-03 07:42:15 51°21.328 3°4.796 -999 -999 -999 -999 -999
2008-06-03 07:42:20 51°21.334 3°4.818 -999 -999 -999 -999 -999
2008-06-03 07:42:25 51°21.34 3°4.84 -999 -999 -999 -999 -999
2008-06-03 07:42:30 51°21.346 3°4.862 -999 -999 -999 -999 -999
2008-06-03 07:42:35 51°21.352 3°4.884 -999 -999 -999 -999 -999
2008-06-03 07:42:40 51°21.359 3°4.906 -999 -999 -999 -999 -999
2008-06-03 07:42:45 51°21.365 3°4.928 -999 -999 -999 -999 -999
2008-06-03 07:42:50 51°21.371 3°4.95 -999 -999 -999 -999 -999
2008-06-03 07:42:55 51°21.377 3°4.972 -999 -999 -999 -999 -999
2008-06-03 07:43:00 51°21.383 3°4.994 -999 -999 -999 -999 -999
2008-06-03 07:43:05 51°21.39 3°5.016 -999 -999 -999 -999 -999
2008-06-03 07:43:10 51°21.396 3°5.038 -999 -999 -999 -999 -999
2008-06-03 07:43:15 51°21.402 3°5.06 -999 -999 -999 -999 -999
2008-06-03 07:43:20 51°21.408 3°5.082 -999 -999 -999 -999 -999
2008-06-03 07:43:24 51°21.413 3°5.1 -999 -999 -999 -999 -999
2008-06-03 07:43:30 51°21.42 3°5.127 -999 -999 -999 -999 -999
2008-06-03 07:43:35 51°21.425 3°5.15 -999 -999 -999 -999 -999
2008-06-03 07:43:40 51°21.43 3°5.173 -999 -999 -999 -999 -999
2008-06-03 07:43:45 51°21.435 3°5.195 -999 -999 -999 -999 -999
2008-06-03 07:43:50 51°21.44 3°5.218 -999 -999 -999 -999 -999
2008-06-03 07:43:55 51°21.446 3°5.241 -999 -999 -999 -999 -999
2008-06-03 07:44:00 51°21.451 3°5.264 -999 -999 -999 -999 -999
2008-06-03 07:44:04 51°21.455 3°5.282 -999 -999 -999 -999 -999
2008-06-03 07:44:10 51°21.461 3°5.309 -999 -999 -999 -999 -999
2008-06-03 07:44:15 51°21.467 3°5.332 -999 -999 -999 -999 -999
2008-06-03 07:44:20 51°21.472 3°5.355 -999 -999 -999 -999 -999
2008-06-03 07:44:25 51°21.477 3°5.378 -999 -999 -999 -999 -999
2008-06-03 07:44:30 51°21.483 3°5.401 -999 -999 -999 -999 -999
2008-06-03 07:44:35 51°21.488 3°5.424 -999 -999 -999 -999 -999
2008-06-03 07:44:40 51°21.493 3°5.447 -999 -999 -999 -999 -999
2008-06-03 07:44:45 51°21.499 3°5.47 -999 -999 -999 -999 -999
2008-06-03 07:44:50 51°21.504 3°5.493 -999 -999 -999 -999 -999
2008-06-03 07:44:55 51°21.51 3°5.516 -999 -999 -999 -999 -999
2008-06-03 07:45:00 51°21.515 3°5.539 -999 -999 -999 -999 -999
2008-06-03 07:45:05 51°21.521 3°5.562 -999 -999 -999 -999 -999
2008-06-03 07:45:10 51°21.527 3°5.585 -999 -999 -999 -999 -999
2008-06-03 07:45:15 51°21.532 3°5.608 -999 -999 -999 -999 -999
2008-06-03 07:45:20 51°21.538 3°5.631 -999 -999 -999 -999 -999
2008-06-03 07:45:25 51°21.543 3°5.654 -999 -999 -999 -999 -999
2008-06-03 07:45:30 51°21.55 3°5.676 -999 -999 -999 -999 -999
2008-06-03 07:45:35 51°21.555 3°5.698 -999 -999 -999 -999 -999